Theta_e
340 342 343 343 342 341 341 340 340 339 339 338 338 337 336 339 339 339 338 337 336 335 334 334 333 334 334 333 335 336 335 335 336 337 336 337 336 336 336 336 336 336 335 334 333 331 330 329 329 327 325 323
337 339 342 341 340 340 340 341 340 340 340 339 339 338 337 337 337 338 338 337 335 334 334 335 334 333 333 333 335 335 335 334 335 336 336 336 336 336 335 335 335 334 333 332 331 330 329 328 326 324 323 321
336 334 338 338 337 339 339 339 339 339 337 337 336 334 332 332 333 333 335 337 336 335 334 334 334 332 335 334 336 335 334 333 334 335 335 335 335 335 334 334 333 332 331 330 329 327 326 324 322 322 322 321
335 333 331 334 335 335 337 337 337 336 333 331 328 328 328 326 325 325 324 325 326 331 331 330 327 332 334 334 334 333 333 333 333 335 335 334 334 334 333 332 331 330 329 328 327 325 323 321 320 318 319 321
336 334 330 331 331 331 332 332 333 332 325 323 323 323 322 322 320 320 321 322 322 323 324 324 325 332 333 333 333 333 332 332 332 333 333 333 331 329 327 324 324 325 326 325 324 322 319 317 316 316 317 318
338 335 332 331 330 329 329 327 326 324 322 324 318 320 320 318 319 318 318 320 324 321 323 323 323 325 330 332 331 332 331 331 331 331 331 329 328 326 322 318 312 313 318 320 319 317 314 311 311 314 316 316
337 337 335 333 331 328 325 326 324 322 321 318 318 316 317 316 317 316 316 317 319 319 321 322 322 324 328 330 329 330 330 329 330 329 328 326 324 321 317 310 308 308 306 308 313 311 309 308 308 311 316 317
337 337 337 336 333 327 325 323 323 321 319 318 317 317 317 317 315 315 317 321 322 321 319 320 321 323 324 325 324 322 321 325 326 325 324 321 318 314 310 307 306 307 306 306 306 307 306 306 307 310 313 316
336 337 337 337 334 328 323 322 321 320 320 318 317 316 316 316 314 315 316 315 315 316 317 317 318 319 317 317 313 314 309 308 308 308 306 307 307 306 307 307 306 306 306 306 306 306 305 306 307 308 310 313
335 337 336 336 335 330 325 322 320 320 320 319 318 316 316 316 315 315 315 313 313 315 316 317 315 315 314 313 309 308 305 304 304 304 305 305 305 304 305 305 304 303 304 305 304 304 304 306 306 307 309 310
334 336 337 337 334 331 327 324 320 319 318 319 317 317 316 317 315 314 314 315 313 314 314 316 314 313 313 313 309 306 305 303 302 304 304 304 303 303 304 303 302 303 302 302 304 303 303 303 304 305 306 308
334 336 337 336 333 332 328 325 322 320 319 318 318 317 317 316 316 316 315 314 314 314 312 315 314 313 312 312 307 305 304 302 301 302 303 303 302 303 302 303 301 302 302 301 301 303 301 302 304 303 304 306
335 336 336 336 334 333 327 328 325 322 319 318 317 317 316 316 315 315 315 315 314 313 313 313 312 311 312 310 306 304 303 302 302 302 302 303 303 302 302 302 302 301 301 301 300 302 301 301 301 302 303 304
335 335 335 335 334 334 329 330 328 324 319 318 317 317 316 316 316 316 315 315 313 314 313 311 309 312 311 310 305 304 303 301 301 301 301 301 302 302 302 302 300 301 300 300 299 300 301 301 301 301 302 303
336 335 335 335 335 334 331 332 331 326 322 319 317 318 317 316 316 315 314 314 313 312 312 311 311 311 308 308 304 303 303 300 301 301 301 302 302 302 301 300 299 301 301 298 299 299 299 299 300 301 302 302
336 335 335 335 335 334 333 333 332 330 325 320 319 318 317 316 316 315 314 313 312 313 312 311 310 309 309 308 303 303 302 300 300 300 299 299 299 299 299 299 298 298 301 298 297 297 298 298 299 300 300 301
336 336 335 335 335 334 334 333 333 331 329 325 321 320 318 316 316 315 314 313 312 311 311 310 309 308 308 307 304 303 301 300 298 298 298 298 297 297 298 298 297 297 297 297 295 296 296 296 297 297 298 299
336 336 336 336 336 334 333 333 333 332 331 329 324 322 320 317 316 315 315 314 311 310 309 309 309 309 308 307 303 304 301 300 299 298 298 297 297 298 298 298 297 298 297 294 294 294 293 294 294 295 296 296
335 336 336 335 336 335 334 333 332 333 333 331 328 324 323 320 317 316 317 316 314 311 309 309 309 310 311 310 306 306 304 302 300 300 299 298 298 297 298 298 298 299 298 296 296 294 293 293 293 294 294 294
335 335 336 336 331 335 334 333 333 333 333 332 330 326 325 324 321 318 318 317 316 313 311 310 310 311 311 310 308 308 305 303 301 300 300 300 301 300 298 298 298 298 298 297 295 294 292 292 294 293 293 294
334 335 335 335 335 335 334 334 333 333 333 333 332 329 327 326 323 320 319 318 317 315 312 311 310 310 310 310 309 308 306 304 303 301 301 300 301 303 300 299 299 297 297 296 294 293 292 292 293 294 293 293
334 334 334 334 334 332 334 334 334 333 333 333 333 332 329 328 326 322 320 319 318 317 315 313 311 309 309 309 309 308 306 304 303 302 302 300 300 302 301 299 299 297 296 296 294 292 292 292 292 293 294 294
332 333 332 333 332 331 332 333 334 334 333 333 333 332 332 330 328 324 323 321 320 318 317 314 311 309 307 308 308 307 306 305 303 301 301 301 300 300 301 301 300 298 296 295 294 293 291 291 290 291 292 293
329 329 328 328 328 329 329 331 329 331 333 333 333 332 332 332 331 328 325 324 322 320 318 315 313 311 308 308 307 307 306 306 304 301 300 300 300 299 298 299 298 296 295 293 292 292 291 290 290 291 291 291
327 326 327 327 328 328 328 328 329 329 330 331 332 332 333 332 332 331 327 325 324 322 317 317 315 312 309 306 306 306 307 307 306 304 302 302 300 299 297 295 296 295 296 294 293 292 291 291 290 291 292 290
327 328 329 328 328 328 328 326 325 326 327 329 329 330 331 331 332 332 330 325 326 324 322 319 316 314 312 309 306 306 307 307 305 305 303 302 299 299 298 296 295 296 297 295 296 294 292 291 290 289 289 289
325 327 327 328 327 328 325 322 325 327 325 324 326 327 329 330 331 331 331 329 326 326 324 322 320 317 315 311 308 306 307 308 307 306 304 302 300 298 297 297 296 296 299 298 295 293 293 292 292 295 291 289
322 319 318 318 318 318 323 321 317 319 316 321 323 325 326 328 329 330 330 330 328 327 326 325 323 321 318 315 311 308 307 306 305 306 305 303 301 300 296 295 293 296 297 297 296 292 295 291 291 291 296 294
315 314 312 311 311 311 314 312 314 314 317 318 319 321 323 325 326 328 329 330 329 326 327 326 325 324 322 319 315 311 309 308 307 307 306 304 301 300 300 297 294 294 296 297 301 300 289 287 288 293 295 290
315 316 317 315 318 317 316 318 316 316 319 318 318 320 322 322 324 326 327 329 330 328 327 328 327 326 324 322 319 315 313 312 310 308 307 305 303 301 301 301 297 294 295 297 298 299 298 296 299 293 290 294
314 314 315 316 319 319 318 318 319 319 316 320 318 314 318 321 322 324 325 326 328 329 328 328 328 327 325 324 322 318 316 314 312 311 309 307 305 303 302 301 298 296 295 295 296 296 297 294 293 294 291 292
Wind_Speed
9 8 9 10 10 9 9 9 10 10 10 9 9 9 9 7 7 10 10 11 10 10 9 10 11 9 10 11 13 12 11 11 11 12 12 14 13 14 14 14 14 14 14 14 13 12 11 9 10 11 8 5
9 8 9 10 9 9 8 9 8 8 8 8 7 7 7 8 9 9 8 9 9 9 10 11 10 10 9 10 12 11 10 10 10 11 13 13 13 13 13 13 13 13 13 13 12 12 11 10 11 10 8 5
6 8 8 9 9 9 9 8 8 7 7 6 7 7 7 8 8 7 8 8 8 10 11 9 8 8 6 11 13 11 11 10 11 11 12 13 13 13 14 13 13 13 12 11 11 11 10 11 11 9 6 4
4 7 8 9 9 9 8 8 8 7 7 8 8 8 9 9 8 8 8 10 8 9 9 9 7 6 5 13 11 10 11 10 10 11 12 13 13 14 14 14 13 12 12 11 10 9 8 10 9 6 4 4
5 5 7 7 9 9 8 7 6 7 8 7 7 7 8 8 6 5 5 6 5 8 6 10 10 6 5 7 10 10 10 10 10 12 12 13 13 14 13 12 12 11 11 11 10 10 9 8 6 5 5 5
4 5 5 4 4 4 5 6 7 6 4 5 4 6 5 4 4 5 4 5 6 5 6 8 10 8 6 7 6 10 10 9 10 11 12 13 13 13 11 9 7 6 8 10 9 8 8 6 4 4 5 4
5 5 4 3 3 4 5 5 5 4 4 3 4 4 4 4 3 4 3 4 4 4 7 7 9 9 8 6 6 9 9 9 10 12 12 12 12 11 10 6 5 5 5 5 7 7 6 5 4 3 4 3
5 5 5 4 4 4 4 4 4 4 4 4 3 4 4 4 3 3 3 5 8 7 5 6 8 9 8 7 7 10 6 8 9 11 11 11 10 7 4 5 5 5 5 5 4 4 4 4 4 4 3 3
6 5 5 5 5 4 4 4 4 4 4 4 4 4 4 4 3 3 4 3 3 5 5 5 5 5 4 4 4 7 5 4 4 5 5 5 5 5 4 5 4 4 4 4 4 4 4 4 4 4 3 2
7 6 5 5 5 5 4 4 4 4 4 4 4 4 4 5 5 4 5 3 3 4 4 5 5 5 5 5 4 3 5 4 4 3 4 4 5 4 4 5 4 3 3 4 4 4 3 4 4 4 3 3
6 6 5 5 5 6 5 4 5 5 4 4 4 4 5 6 5 4 5 4 4 4 4 5 5 5 5 5 5 4 6 4 3 4 4 4 4 3 4 4 3 4 3 3 4 3 3 3 3 3 3 3
7 6 6 5 6 6 6 6 5 5 5 4 5 5 5 5 5 6 5 4 4 4 3 5 4 4 5 5 5 4 5 5 3 4 4 4 3 4 3 5 3 4 3 3 3 4 3 3 3 3 3 4
8 6 6 5 6 7 7 6 5 5 4 5 5 4 5 5 6 5 5 6 5 4 4 4 4 5 5 4 5 5 4 5 4 4 4 5 4 4 4 4 4 3 3 3 3 3 3 3 3 3 2 3
7 7 7 7 6 6 7 7 6 5 5 5 5 5 5 5 5 6 6 6 4 5 5 4 3 4 4 4 3 5 5 3 5 5 4 4 4 5 4 4 3 4 4 3 2 2 3 2 3 2 3 2
7 8 7 7 6 6 6 7 6 5 5 5 5 5 5 5 5 5 5 5 5 4 4 4 4 4 3 3 3 2 3 2 3 3 4 4 5 5 4 3 2 4 4 3 3 2 2 1 1 2 1 1
7 8 8 7 7 7 6 7 7 6 6 6 5 4 5 5 5 5 4 5 5 5 5 5 5 3 4 3 2 2 3 3 2 2 3 3 2 2 3 4 2 2 4 3 2 2 2 1 1 1 1 1
8 7 7 7 7 7 7 6 6 7 7 6 6 5 5 5 5 5 5 5 6 5 5 5 5 4 4 3 4 3 3 4 3 3 3 3 3 3 3 3 2 2 2 3 2 1 1 1 1 0 1 0
7 7 7 7 6 7 8 7 7 6 6 7 6 6 6 5 5 5 5 5 5 4 4 4 5 5 4 4 4 4 4 5 4 4 4 3 4 3 4 3 2 3 2 1 1 2 1 1 1 1 1 1
9 7 7 7 7 6 8 8 8 7 5 7 8 7 6 6 6 6 6 6 6 6 5 5 5 6 6 5 5 5 4 5 4 5 5 5 5 3 2 2 2 2 2 2 2 1 1 1 1 1 1 1
9 9 8 7 7 7 7 7 8 8 8 6 7 8 8 8 8 8 8 7 7 6 7 6 6 6 5 7 6 5 5 5 6 6 5 6 6 6 4 4 4 2 3 3 2 1 1 1 1 1 1 1
8 8 8 8 8 8 8 7 7 7 7 8 7 7 8 9 9 8 8 8 8 7 8 7 7 6 7 6 6 7 7 6 5 6 6 6 6 6 6 5 4 3 3 3 3 1 1 0 0 0 1 1
10 8 7 7 7 7 8 8 7 6 7 8 8 7 8 9 10 9 9 8 7 7 7 7 7 6 8 9 9 8 8 9 8 7 7 7 6 7 7 6 7 6 4 2 2 2 1 1 0 1 1 1
8 8 7 6 6 7 8 7 7 8 8 7 7 8 8 9 9 10 11 12 11 9 7 6 7 7 8 8 9 8 8 8 9 8 8 8 7 4 4 7 8 7 5 3 2 2 2 1 1 2 2 2
7 6 7 7 5 7 8 7 6 5 7 8 9 9 9 9 9 9 9 9 8 8 7 7 7 8 6 6 4 6 7 6 6 9 9 9 10 9 4 1 3 6 7 4 2 0 2 2 2 3 3 3
8 9 7 7 9 10 6 6 6 6 6 5 5 8 10 11 9 9 11 12 12 12 11 10 8 7 7 8 10 10 10 10 11 10 10 8 5 8 8 6 6 5 6 7 2 0 3 4 2 4 4 5
9 10 10 9 9 8 6 6 7 7 6 7 5 6 7 8 10 11 10 9 9 10 10 10 10 11 10 7 6 6 5 5 6 4 4 3 5 4 7 6 5 5 7 2 8 5 3 4 4 6 5 5
11 9 8 9 6 7 5 4 6 6 5 5 6 6 7 7 7 7 8 10 12 11 10 10 10 10 9 11 10 9 8 7 7 7 9 7 6 4 3 1 3 8 10 5 3 2 3 3 2 4 5 5
7 5 4 3 2 2 4 4 3 4 4 5 7 8 6 6 6 6 7 7 8 9 11 12 11 9 8 9 9 10 10 11 13 12 11 11 11 9 7 6 7 10 12 6 9 3 8 2 2 5 9 10
4 4 4 3 2 2 1 1 1 3 5 6 6 6 7 8 5 5 7 8 10 9 9 10 10 9 9 9 10 10 10 10 11 11 12 13 11 12 12 10 6 8 10 11 11 5 6 2 1 9 3 2
5 6 7 6 6 6 6 7 6 9 10 8 8 10 6 5 7 7 7 6 7 9 10 10 10 10 10 9 8 9 9 9 9 10 9 11 12 12 11 10 8 8 7 10 10 10 4 2 6 5 3 2
6 6 6 9 10 10 10 10 10 8 6 7 7 4 6 7 6 8 9 9 8 8 8 9 9 9 10 9 9 9 10 11 12 11 11 9 9 11 12 11 11 13 10 7 10 11 11 8 2 3 7 8
Wind_Direction
151 154 147 146 147 148 149 151 149 147 144 140 137 138 136 119 111 116 125 125 125 119 127 125 122 121 124 130 118 119 119 118 118 117 119 117 117 115 110 109 105 103 100 98 96 91 85 76 69 58 50 45
157 157 152 148 148 149 149 151 150 146 147 144 128 86 87 109 109 116 125 127 132 133 111 113 123 132 134 136 120 109 102 110 110 115 116 112 106 100 98 97 98 97 97 95 91 88 84 73 68 59 46 48
157 158 155 148 151 149 150 150 148 150 144 127 103 99 89 87 84 89 96 95 81 94 115 119 118 131 134 111 105 108 106 112 110 106 100 96 93 90 89 87 86 84 84 86 87 88 85 84 81 72 67 51
157 161 161 154 150 151 150 150 149 143 128 112 109 101 94 90 88 85 87 87 81 90 97 103 106 110 136 117 118 115 106 109 110 104 99 100 98 94 88 84 79 77 75 70 70 71 72 90 84 75 84 75
159 166 162 159 153 150 147 142 133 113 101 95 95 97 94 89 92 97 96 92 100 99 107 111 113 116 113 113 124 121 111 115 120 116 108 98 92 90 86 77 70 66 71 68 63 54 49 59 72 84 70 72
162 161 159 157 149 141 137 130 120 112 111 103 98 94 89 89 88 92 97 101 105 109 110 109 112 108 98 90 109 115 111 111 110 103 99 98 97 95 90 79 80 72 65 68 69 61 60 53 31 51 75 73
160 160 153 154 143 130 130 130 124 121 118 120 118 107 101 96 95 94 93 105 113 113 114 114 112 112 108 99 91 106 112 114 106 102 100 96 95 91 84 80 82 78 70 60 56 63 63 65 42 27 73 76
166 165 159 158 150 135 133 130 133 130 129 130 124 116 110 106 100 94 98 101 108 104 101 108 106 108 105 98 91 76 65 77 88 93 89 88 85 77 74 84 76 79 68 63 57 62 63 67 53 49 47 88
179 167 160 163 151 145 139 137 137 142 142 143 136 129 125 122 114 109 101 101 96 107 112 107 106 101 97 95 80 88 86 83 74 77 83 73 69 71 82 83 69 73 76 57 61 64 61 71 67 58 38 39
178 170 174 169 160 152 150 150 153 157 156 153 148 145 138 128 124 125 121 116 116 114 124 122 124 121 117 105 94 99 110 100 102 89 94 95 88 75 75 79 78 70 86 96 70 67 60 61 66 72 63 46
168 186 183 173 161 162 168 158 163 174 172 169 158 154 154 145 146 144 144 141 140 145 141 143 144 141 136 128 120 123 121 111 100 113 108 101 99 94 92 84 81 84 80 85 101 79 68 62 72 72 75 67
151 188 184 179 163 175 169 166 181 185 182 168 169 166 168 156 156 156 158 160 157 164 152 157 154 147 140 133 131 131 128 124 114 110 112 115 105 105 98 107 95 94 87 81 94 107 85 81 84 86 88 91
183 193 186 184 177 184 169 187 185 183 173 177 175 173 169 161 157 161 163 167 171 153 168 155 155 159 156 142 144 134 132 136 137 131 131 127 126 119 120 115 115 108 88 86 81 110 113 113 110 103 98 101
181 193 190 194 189 186 171 195 185 168 181 185 175 180 180 179 169 173 172 170 163 166 171 167 161 164 162 157 153 143 149 154 141 143 132 128 133 134 132 126 133 117 110 89 84 90 122 123 135 130 131 127
188 188 198 191 193 191 185 189 189 176 178 182 191 186 180 180 179 170 168 166 169 170 162 166 171 180 155 153 159 144 134 124 136 138 145 154 149 144 135 126 120 123 117 110 94 95 110 138 98 111 118 163
195 191 195 192 192 198 192 185 191 191 182 187 192 185 185 184 181 173 172 169 168 173 167 173 178 170 169 175 141 124 126 116 97 114 102 87 90 98 104 107 82 75 116 115 102 93 113 83 96 83 91 207
201 195 192 196 194 194 190 192 190 192 195 191 184 185 183 190 184 179 174 177 175 173 174 168 167 175 184 155 143 126 132 122 109 96 97 77 78 82 86 91 77 61 65 104 81 63 51 60 83 8 56 28
203 200 196 196 198 189 189 196 201 197 189 193 185 182 184 187 190 185 180 170 170 164 165 167 175 179 184 162 153 139 143 144 147 135 126 127 111 116 128 141 137 125 113 66 53 72 18 37 7 4 28 13
206 202 200 197 200 194 190 194 198 200 190 187 190 182 189 190 191 193 189 180 171 175 171 175 183 190 190 171 161 159 166 156 152 155 160 156 137 131 119 133 164 161 159 148 141 79 34 48 356 32 21 358
204 204 204 203 201 201 193 196 198 197 196 187 185 187 192 194 196 196 196 186 180 179 184 185 192 198 181 174 167 169 164 163 173 176 164 178 163 157 182 165 188 168 161 161 142 55 62 21 18 20 34 357
203 202 205 203 200 203 198 199 200 197 195 193 185 186 195 192 196 197 197 196 192 189 189 192 193 191 182 175 182 173 172 181 185 174 175 182 188 177 171 185 179 175 171 166 150 100 80 17 18 355 317 324
203 205 203 206 203 199 204 203 197 195 195 199 197 187 191 192 194 195 195 196 198 207 202 201 200 197 186 180 184 187 181 190 177 178 179 187 203 191 166 183 182 188 168 148 146 120 107 313 34 256 282 304
202 202 207 208 207 209 211 209 204 194 196 200 197 200 191 190 197 197 196 193 191 200 204 209 209 200 194 189 185 186 196 194 184 181 183 183 188 228 229 190 179 166 155 147 147 177 257 270 254 262 239 226
197 197 201 206 210 219 215 208 206 214 213 195 197 195 193 193 193 193 200 200 197 201 200 201 200 197 181 189 203 202 192 198 197 193 189 197 181 184 190 180 168 152 149 139 118 333 308 277 281 262 245 252
192 200 204 210 210 218 207 211 209 211 214 219 220 204 198 199 205 204 199 198 193 195 191 191 195 208 201 187 190 195 202 199 201 202 197 190 203 189 173 181 175 191 155 146 131 323 252 269 240 256 253 249
200 203 204 201 212 211 202 199 204 218 212 214 209 211 217 215 204 197 193 197 206 203 197 198 195 193 197 197 212 231 249 214 193 184 213 203 178 194 198 204 173 166 137 168 203 187 246 279 281 252 250 249
208 207 208 204 213 202 212 214 205 211 204 200 213 217 216 212 210 213 212 194 190 196 202 206 205 207 199 190 187 197 205 203 207 188 191 191 204 200 199 172 174 176 201 188 135 81 65 256 256 251 249 233
209 199 198 217 206 204 204 200 198 206 209 207 214 225 217 224 217 205 203 202 205 203 199 200 206 208 203 205 199 203 204 199 200 194 194 189 193 180 194 194 206 199 201 173 148 196 207 175 126 322 244 224
172 141 150 135 63 56 59 5 174 193 226 214 215 224 217 222 205 216 218 204 197 201 206 203 204 206 207 202 195 196 206 210 217 212 203 194 188 189 197 201 207 218 210 208 211 176 116 63 227 223 261 89
163 181 176 166 185 202 209 223 208 217 219 208 211 218 217 213 210 218 222 220 219 208 203 204 204 202 203 202 198 201 212 218 211 212 205 197 196 200 206 204 192 215 215 227 232 248 283 160 193 165 216 113
170 183 190 196 204 210 212 221 230 228 227 221 221 209 211 218 212 217 222 228 225 223 216 213 205 203 202 198 201 204 210 215 211 203 200 191 200 205 204 197 204 207 205 211 243 243 251 259 205 166 130 214